Location: Cella
(44.7333°N, 10.5667°E)
Time: 08:19:58
(UTC+00:00)

Meteor 1-5 Rocket - Pass Details

Date: 03 March 2021
Orbit: 790 x 915 km, 81.2° (Epoch: 19 April)

Event Time Altitude Azimuth Distance (km) Brightness Sun altitude
Rises 18:29:56 0° 180° (S) 3,282 7.2 -15.3°
Reaches altitude 10° 18:32:17 10° 177° (S) 2,365 6.4 -15.7°
Maximum altitude 18:37:33 66° 97° (E) 887 4.0 -16.6°
Drops below altitude 10° 18:43:01 10° 16° (NNE) 2,447 6.5 -17.6°
Sets 18:45:29 0° 14° (NNE) 3,405 7.3 -18.0°
